Terminal Aerodrome Forecast
Issued by NWS

Home | Current Version | Previous Version | Graphics & Text | Print | Product List | Glossary On
Versions: 1 2 3 4 5 6 7 8 9 10 11 12 13 14 15 16 17 18 19 20 21 22 23 24
000
FTUS43 KABR 271100
TAFATY
TAF
KATY 271122Z 2712/2812 VRB05KT P6SM SKC
     FM271900 15010KT P6SM OVC025
     FM280900 VRB05KT P6SM OVC015=

USA.gov is the U.S. government's official web portal to all federal, state and local government web resources and services.